CES5617 ZSSS-ZYHB

Flight info

Callsign CES5617
Flight time 2h 33m
Altitude 33100
Route PIKAS G330 PIMOL A593 LAGAL W178 RUXEL DCT GURIL DCT MABEB DCT XDX DCT URBAD W172 IGDEG W173 NIXEP W8 DOBGA W202 UDETI A588 NULRA W206 MAGBI W656 ISLUK W629 LARUN
Aircraft A321/M-SDE3FGHIRWY/LB1

Departure

Time 2026-05-04 03:18
Airport Shanghai Hongqiao International Airport (ZSSS)

Arrival

Time 2026-05-04 05:52
Airport Harbin Taiping International Airport (ZYHB)
Time Latitude Longitude Altitude Speed Heading
2026-05-04 03:06 31.20112 121.32422 19 ft 0 kts 267°
2026-05-04 03:09 31.20113 121.32449 19 ft 4 kts 267°
2026-05-04 03:09 31.20114 121.32481 19 ft 4 kts 267°
2026-05-04 03:09 31.20116 121.32507 19 ft 4 kts 248°
2026-05-04 03:10 31.20130 121.32525 22 ft 4 kts 188°
2026-05-04 03:10 31.20148 121.32526 19 ft 0 kts 177°
2026-05-04 03:11 31.20147 121.32526 19 ft 0 kts 177°
2026-05-04 03:12 31.20132 121.32527 22 ft 4 kts 177°
2026-05-04 03:12 31.20087 121.32530 19 ft 8 kts 175°
2026-05-04 03:12 31.20041 121.32578 19 ft 11 kts 88°
2026-05-04 03:12 31.20056 121.32680 19 ft 14 kts 86°
2026-05-04 03:13 31.20061 121.32804 19 ft 16 kts 87°
2026-05-04 03:13 31.20066 121.32934 19 ft 16 kts 87°
2026-05-04 03:13 31.20030 121.33042 20 ft 16 kts 166°
2026-05-04 03:13 31.19917 121.33049 19 ft 17 kts 177°
2026-05-04 03:14 31.19797 121.33056 19 ft 18 kts 177°
2026-05-04 03:14 31.19670 121.33062 19 ft 19 kts 176°
2026-05-04 03:14 31.19536 121.33070 19 ft 20 kts 177°
2026-05-04 03:14 31.19402 121.33077 18 ft 19 kts 177°
2026-05-04 03:15 31.19264 121.33085 19 ft 20 kts 177°
2026-05-04 03:15 31.19124 121.33092 19 ft 20 kts 178°
2026-05-04 03:15 31.18988 121.33100 19 ft 19 kts 177°
2026-05-04 03:15 31.18853 121.33106 19 ft 20 kts 178°
2026-05-04 03:16 31.18716 121.33114 20 ft 20 kts 177°
2026-05-04 03:16 31.18575 121.33123 19 ft 21 kts 177°
2026-05-04 03:16 31.18430 121.33130 20 ft 20 kts 177°
2026-05-04 03:16 31.18341 121.33185 19 ft 13 kts 99°
2026-05-04 03:17 31.18345 121.33271 19 ft 12 kts 87°
2026-05-04 03:17 31.18381 121.33327 19 ft 9 kts 358°
2026-05-04 03:17 31.18438 121.33321 20 ft 0 kts 357°
2026-05-04 03:17 31.18457 121.33320 20 ft 17 kts 357°
2026-05-04 03:18 31.18838 121.33298 20 ft 90 kts 358°
2026-05-04 03:18 31.19671 121.33254 19 ft 147 kts 357°
2026-05-04 03:18 31.20786 121.33190 316 ft 168 kts 356°
2026-05-04 03:18 31.21972 121.33097 933 ft 171 kts 346°
2026-05-04 03:19 31.22988 121.32436 1687 ft 168 kts 320°
2026-05-04 03:19 31.23946 121.31583 2168 ft 183 kts 321°
2026-05-04 03:19 31.25028 121.30647 2540 ft 205 kts 321°
2026-05-04 03:19 31.26244 121.29608 2856 ft 229 kts 322°
2026-05-04 03:20 31.27600 121.28457 3311 ft 251 kts 322°
2026-05-04 03:20 31.29036 121.27246 4075 ft 256 kts 323°
2026-05-04 03:20 31.30489 121.26025 4953 ft 258 kts 324°
2026-05-04 03:20 31.31947 121.24800 5852 ft 258 kts 324°
2026-05-04 03:21 31.33404 121.23575 6719 ft 257 kts 324°
2026-05-04 03:21 31.34855 121.22353 7474 ft 258 kts 324°
2026-05-04 03:21 31.36324 121.21112 8163 ft 263 kts 324°
2026-05-04 03:21 31.37819 121.19850 8895 ft 267 kts 324°
2026-05-04 03:22 31.39342 121.18567 9624 ft 272 kts 324°
2026-05-04 03:22 31.40773 121.17110 10299 ft 277 kts 313°
2026-05-04 03:22 31.42133 121.15372 10555 ft 300 kts 313°
2026-05-04 03:22 31.43594 121.13497 10742 ft 324 kts 313°
2026-05-04 03:23 31.45311 121.11670 10882 ft 346 kts 325°
2026-05-04 03:23 31.47502 121.10311 11001 ft 367 kts 335°
2026-05-04 03:23 31.49885 121.09054 11257 ft 383 kts 335°
2026-05-04 03:23 31.52339 121.07763 11853 ft 389 kts 335°
2026-05-04 03:24 31.54821 121.06457 12468 ft 394 kts 334°
2026-05-04 03:24 31.57324 121.05133 13105 ft 399 kts 334°
2026-05-04 03:24 31.59864 121.03784 13743 ft 404 kts 334°
2026-05-04 03:24 31.62442 121.02409 14326 ft 409 kts 333°
2026-05-04 03:25 31.65046 121.01017 14901 ft 412 kts 333°
2026-05-04 03:25 31.67659 120.99621 15466 ft 414 kts 333°
2026-05-04 03:25 31.70295 120.98216 16035 ft 417 kts 333°
2026-05-04 03:25 31.72941 120.96808 16563 ft 419 kts 333°
2026-05-04 03:26 31.74738 120.95851 16916 ft 421 kts 333°
2026-05-04 03:26 31.78278 120.93956 17623 ft 424 kts 333°
2026-05-04 03:26 31.80096 120.92980 17963 ft 425 kts 333°
2026-05-04 03:26 31.82791 120.91532 18440 ft 427 kts 333°
2026-05-04 03:27 31.85505 120.90079 18849 ft 429 kts 333°
2026-05-04 03:27 31.88230 120.88623 19257 ft 431 kts 333°
2026-05-04 03:27 31.90968 120.87161 19658 ft 434 kts 332°
2026-05-04 03:27 31.93724 120.85687 20061 ft 436 kts 332°
2026-05-04 03:28 31.96488 120.84207 20464 ft 438 kts 332°
2026-05-04 03:28 31.99273 120.82710 20859 ft 441 kts 332°
2026-05-04 03:28 32.02071 120.81202 21239 ft 443 kts 331°
2026-05-04 03:28 32.04884 120.79687 21613 ft 446 kts 331°
2026-05-04 03:29 32.07710 120.78161 21989 ft 448 kts 331°
2026-05-04 03:29 32.10468 120.76475 22335 ft 446 kts 323°
2026-05-04 03:29 32.12883 120.74219 22691 ft 442 kts 312°
2026-05-04 03:29 32.14866 120.71462 23051 ft 440 kts 301°
2026-05-04 03:30 32.16345 120.68322 23407 ft 438 kts 291°
2026-05-04 03:30 32.17275 120.64905 23757 ft 438 kts 281°
2026-05-04 03:30 32.17675 120.61342 24049 ft 439 kts 275°
2026-05-04 03:30 32.17969 120.57758 24382 ft 439 kts 274°
2026-05-04 03:31 32.18267 120.54179 24846 ft 436 kts 274°
2026-05-04 03:31 32.18565 120.50632 25327 ft 432 kts 274°
2026-05-04 03:31 32.18860 120.47118 25809 ft 429 kts 274°
2026-05-04 03:31 32.19151 120.43628 26304 ft 425 kts 273°
2026-05-04 03:32 32.19439 120.40168 26801 ft 422 kts 273°
2026-05-04 03:32 32.19722 120.36736 27304 ft 418 kts 272°
2026-05-04 03:32 32.19999 120.33333 27804 ft 414 kts 272°
2026-05-04 03:32 32.20270 120.29963 28305 ft 411 kts 272°
2026-05-04 03:33 32.20539 120.26622 28815 ft 407 kts 272°
2026-05-04 03:33 32.20810 120.23307 29332 ft 404 kts 271°
2026-05-04 03:33 32.21080 120.20023 29842 ft 400 kts 271°
2026-05-04 03:33 32.21351 120.16771 30324 ft 397 kts 271°
2026-05-04 03:34 32.21617 120.13544 30734 ft 394 kts 271°
2026-05-04 03:34 32.21876 120.10340 31104 ft 391 kts 270°
2026-05-04 03:34 32.22133 120.07139 31479 ft 389 kts 270°
2026-05-04 03:34 32.22387 120.03964 31831 ft 388 kts 270°
2026-05-04 03:35 32.22641 120.00798 32187 ft 386 kts 270°
2026-05-04 03:35 32.22891 119.97649 32534 ft 385 kts 270°
2026-05-04 03:35 32.23141 119.94506 32882 ft 383 kts 270°
2026-05-04 03:35 32.23387 119.91381 33174 ft 383 kts 270°
2026-05-04 03:36 32.23633 119.88251 33240 ft 384 kts 270°
2026-05-04 03:36 32.24146 119.81959 33228 ft 387 kts 273°
2026-05-04 03:36 32.24825 119.78849 33234 ft 397 kts 284°
2026-05-04 03:37 32.26123 119.75910 33235 ft 411 kts 295°
2026-05-04 03:37 32.28037 119.73313 33238 ft 429 kts 308°
2026-05-04 03:37 32.30447 119.71139 33238 ft 439 kts 313°
2026-05-04 03:38 32.35417 119.66922 33238 ft 440 kts 313°
2026-05-04 03:38 32.40386 119.62697 33247 ft 440 kts 313°
2026-05-04 03:39 32.45344 119.58456 33261 ft 440 kts 313°
2026-05-04 03:39 32.50299 119.54205 33264 ft 439 kts 313°
2026-05-04 03:40 32.55233 119.49947 33264 ft 439 kts 312°
2026-05-04 03:40 32.60153 119.45676 33267 ft 438 kts 312°
2026-05-04 03:41 32.65065 119.41410 33272 ft 437 kts 312°
2026-05-04 03:41 32.69974 119.37159 33271 ft 437 kts 312°
2026-05-04 03:42 32.74880 119.32902 33268 ft 436 kts 312°
2026-05-04 03:42 32.79765 119.28650 33275 ft 435 kts 312°
2026-05-04 03:43 32.84644 119.24393 33276 ft 435 kts 312°
2026-05-04 03:43 32.89519 119.20145 33272 ft 434 kts 313°
2026-05-04 03:44 32.94393 119.15900 33256 ft 434 kts 313°
2026-05-04 03:44 32.99277 119.11665 33253 ft 434 kts 314°
2026-05-04 03:45 33.04182 119.07452 33252 ft 435 kts 314°
2026-05-04 03:45 33.09102 119.03221 33248 ft 436 kts 314°
2026-05-04 03:46 33.14013 118.98974 33251 ft 436 kts 315°
2026-05-04 03:46 33.18934 118.94715 33248 ft 437 kts 315°
2026-05-04 03:47 33.23858 118.90434 33249 ft 438 kts 315°
2026-05-04 03:47 33.28774 118.86128 33246 ft 438 kts 315°
2026-05-04 03:48 33.33708 118.81823 33245 ft 439 kts 316°
2026-05-04 03:48 33.38663 118.77542 33244 ft 440 kts 316°
2026-05-04 03:49 33.43769 118.73469 33240 ft 449 kts 326°
2026-05-04 03:49 33.46727 118.72117 33240 ft 461 kts 338°
2026-05-04 03:49 33.49922 118.71458 33239 ft 473 kts 349°
2026-05-04 03:49 33.53254 118.71574 33241 ft 485 kts
2026-05-04 03:50 33.56600 118.72109 33239 ft 486 kts
2026-05-04 03:50 33.63301 118.73197 33245 ft 486 kts
2026-05-04 03:51 33.70002 118.74271 33256 ft 486 kts
2026-05-04 03:51 33.76696 118.75340 33258 ft 485 kts
2026-05-04 03:52 33.83383 118.76414 33259 ft 484 kts
2026-05-04 03:52 33.90044 118.77494 33258 ft 483 kts
2026-05-04 03:53 33.96713 118.78551 33259 ft 482 kts
2026-05-04 03:53 34.03362 118.79598 33258 ft 482 kts
2026-05-04 03:54 34.10004 118.80657 33262 ft 481 kts
2026-05-04 03:54 34.16634 118.81724 33264 ft 480 kts
2026-05-04 03:55 34.23252 118.82802 33265 ft 479 kts
2026-05-04 03:55 34.29859 118.83875 33265 ft 478 kts
2026-05-04 03:56 34.36447 118.84945 33257 ft 477 kts
2026-05-04 03:56 34.43020 118.86013 33257 ft 476 kts
2026-05-04 03:57 34.49577 118.87071 33258 ft 475 kts
2026-05-04 03:57 34.56101 118.88357 33256 ft 480 kts 11°
2026-05-04 03:58 34.64943 118.94358 33248 ft 496 kts 35°
2026-05-04 03:58 34.70275 118.99697 33257 ft 497 kts 35°
2026-05-04 03:59 34.75613 119.05030 33257 ft 497 kts 35°
2026-05-04 03:59 34.80946 119.10371 33256 ft 496 kts 35°
2026-05-04 04:00 34.86263 119.15723 33258 ft 496 kts 35°
2026-05-04 04:00 34.91582 119.21080 33261 ft 496 kts 35°
2026-05-04 04:01 34.96897 119.26433 33259 ft 496 kts 35°
2026-05-04 04:01 35.02208 119.31792 33256 ft 495 kts 35°
2026-05-04 04:02 35.07516 119.37158 33263 ft 495 kts 36°
2026-05-04 04:02 35.12815 119.42532 33268 ft 495 kts 36°
2026-05-04 04:03 35.18101 119.47908 33264 ft 494 kts 36°
2026-05-04 04:03 35.23392 119.53278 33266 ft 494 kts 36°
2026-05-04 04:04 35.27784 119.57744 33263 ft 494 kts 36°
2026-05-04 04:04 35.33059 119.63124 33258 ft 493 kts 36°
2026-05-04 04:05 35.38330 119.68516 33249 ft 494 kts 36°
2026-05-04 04:05 35.43604 119.73922 33258 ft 494 kts 36°
2026-05-04 04:06 35.48895 119.79303 33251 ft 494 kts 35°
2026-05-04 04:06 35.54217 119.84636 33252 ft 494 kts 35°
2026-05-04 04:07 35.59538 119.89992 33246 ft 495 kts 36°
2026-05-04 04:07 35.64855 119.95377 33250 ft 495 kts 36°
2026-05-04 04:08 35.70174 120.00780 33237 ft 496 kts 36°
2026-05-04 04:08 35.75500 120.06194 33242 ft 496 kts 36°
2026-05-04 04:09 35.80824 120.11609 33230 ft 497 kts 36°
2026-05-04 04:09 35.86158 120.17039 33233 ft 497 kts 36°
2026-05-04 04:10 35.91484 120.22478 33222 ft 497 kts 36°
2026-05-04 04:10 35.96803 120.27937 33220 ft 498 kts 37°
2026-05-04 04:11 36.01610 120.34179 33210 ft 503 kts 45°
2026-05-04 04:11 36.06301 120.40598 33214 ft 502 kts 41°
2026-05-04 04:12 36.11872 120.45591 33203 ft 491 kts 21°
2026-05-04 04:12 36.18248 120.48200 33206 ft 478 kts
2026-05-04 04:13 36.24808 120.48808 33202 ft 472 kts 356°
2026-05-04 04:13 36.31382 120.49184 33211 ft 473 kts 356°
2026-05-04 04:14 36.37962 120.49884 33208 ft 481 kts
2026-05-04 04:14 36.44394 120.52508 33222 ft 489 kts 15°
2026-05-04 04:15 36.50779 120.55442 33210 ft 487 kts 11°
2026-05-04 04:15 36.57390 120.56999 33216 ft 479 kts
2026-05-04 04:16 36.63947 120.58118 33199 ft 479 kts
2026-05-04 04:16 36.70600 120.59270 33217 ft 479 kts
2026-05-04 04:17 36.77201 120.60419 33223 ft 480 kts
2026-05-04 04:17 36.83769 120.61567 33223 ft 479 kts
2026-05-04 04:18 36.90414 120.62727 33221 ft 479 kts
2026-05-04 04:18 36.97021 120.63888 33224 ft 479 kts
2026-05-04 04:19 37.03614 120.65121 33216 ft 479 kts
2026-05-04 04:19 37.10210 120.66376 33221 ft 479 kts
2026-05-04 04:20 37.16803 120.67614 33216 ft 479 kts
2026-05-04 04:20 37.23389 120.68840 33220 ft 478 kts
2026-05-04 04:21 37.29969 120.70072 33217 ft 478 kts
2026-05-04 04:21 37.36556 120.71314 33217 ft 478 kts
2026-05-04 04:22 37.43129 120.72557 33215 ft 478 kts
2026-05-04 04:22 37.49711 120.73789 33216 ft 478 kts
2026-05-04 04:23 37.56288 120.75027 33208 ft 478 kts
2026-05-04 04:23 37.62857 120.76144 33221 ft 475 kts 359°
2026-05-04 04:24 37.69437 120.76895 33216 ft 473 kts 358°
2026-05-04 04:24 37.76000 120.77559 33226 ft 473 kts 358°
2026-05-04 04:25 37.82557 120.78294 33218 ft 473 kts 358°
2026-05-04 04:25 37.89113 120.79094 33216 ft 473 kts 358°
2026-05-04 04:26 37.95659 120.79907 33209 ft 473 kts 359°
2026-05-04 04:26 38.02096 120.81883 33212 ft 489 kts 17°
2026-05-04 04:27 38.08148 120.86152 33210 ft 497 kts 25°
2026-05-04 04:27 38.14087 120.90626 33210 ft 497 kts 25°
2026-05-04 04:28 38.19984 120.95105 33196 ft 499 kts 28°
2026-05-04 04:28 38.22728 120.97862 33190 ft 507 kts 39°
2026-05-04 04:28 38.25141 121.01232 33193 ft 513 kts 49°
2026-05-04 04:29 38.28615 121.09147 33169 ft 519 kts 64°
2026-05-04 04:29 38.31530 121.17570 33168 ft 520 kts 64°
2026-05-04 04:30 38.34456 121.26016 33160 ft 521 kts 64°
2026-05-04 04:30 38.37386 121.34475 33169 ft 522 kts 64°
2026-05-04 04:31 38.40316 121.42955 33161 ft 523 kts 64°
2026-05-04 04:31 38.43345 121.51374 33170 ft 522 kts 62°
2026-05-04 04:32 38.46692 121.59601 33160 ft 522 kts 59°
2026-05-04 04:32 38.48402 121.63678 32997 ft 516 kts 58°
2026-05-04 04:32 38.50025 121.67581 34078 ft 486 kts 57°
2026-05-04 04:33 38.51571 121.71331 34980 ft 470 kts 57°
2026-05-04 04:33 38.53063 121.74972 35852 ft 454 kts 58°
2026-05-04 04:33 38.54492 121.78485 36670 ft 438 kts 58°
2026-05-04 04:33 38.55861 121.81878 37448 ft 422 kts 58°
2026-05-04 04:34 38.57172 121.85152 38154 ft 406 kts 58°
2026-05-04 04:34 38.58426 121.88308 38744 ft 391 kts 58°
2026-05-04 04:34 38.60895 121.94543 38391 ft 405 kts 58°
2026-05-04 04:35 38.62175 121.97860 37490 ft 426 kts 59°
2026-05-04 04:35 38.63504 122.01361 36141 ft 447 kts 59°
2026-05-04 04:35 38.64897 122.05024 34786 ft 469 kts 59°
2026-05-04 04:35 38.66361 122.08818 33854 ft 478 kts 58°
2026-05-04 04:36 38.68057 122.12438 33403 ft 473 kts 49°
2026-05-04 04:36 38.70139 122.15670 33169 ft 469 kts 40°
2026-05-04 04:36 38.75201 122.20750 33130 ft 460 kts 26°
2026-05-04 04:37 38.86095 122.29334 33130 ft 459 kts 26°
2026-05-04 04:38 38.91525 122.33635 33127 ft 458 kts 27°
2026-05-04 04:38 38.96950 122.37946 33128 ft 458 kts 27°
2026-05-04 04:39 39.02364 122.42256 33129 ft 458 kts 27°
2026-05-04 04:39 39.07782 122.46572 33130 ft 458 kts 27°
2026-05-04 04:40 39.13197 122.50884 33130 ft 457 kts 27°
2026-05-04 04:40 39.18605 122.55201 33131 ft 457 kts 27°
2026-05-04 04:41 39.24002 122.59527 33129 ft 457 kts 27°
2026-05-04 04:41 39.29424 122.63782 33123 ft 455 kts 25°
2026-05-04 04:42 39.34956 122.67714 33116 ft 453 kts 23°
2026-05-04 04:42 39.40513 122.71551 33106 ft 453 kts 24°
2026-05-04 04:43 39.45116 122.74791 33105 ft 453 kts 24°
2026-05-04 04:43 39.51555 122.79421 33102 ft 453 kts 24°
2026-05-04 04:44 39.56172 122.82756 33102 ft 453 kts 24°
2026-05-04 04:44 39.61671 122.86715 33097 ft 452 kts 24°
2026-05-04 04:45 39.67132 122.90648 33099 ft 452 kts 24°
2026-05-04 04:47 39.86308 123.04527 33082 ft 450 kts 25°
2026-05-04 04:47 39.91770 123.08483 33083 ft 449 kts 24°
2026-05-04 04:48 39.97233 123.12426 33077 ft 448 kts 24°
2026-05-04 04:49 40.10854 123.22279 33072 ft 447 kts 24°
2026-05-04 04:49 40.16300 123.26194 33068 ft 446 kts 24°
2026-05-04 04:50 40.21732 123.30110 33064 ft 446 kts 24°
2026-05-04 04:50 40.27160 123.34036 33059 ft 445 kts 25°
2026-05-04 04:51 40.32588 123.37969 33056 ft 445 kts 25°
2026-05-04 04:51 40.38003 123.41903 33055 ft 445 kts 25°
2026-05-04 04:52 40.43416 123.45840 33057 ft 444 kts 25°
2026-05-04 04:52 40.48823 123.49778 33053 ft 444 kts 25°
2026-05-04 04:53 40.54218 123.53719 33048 ft 444 kts 25°
2026-05-04 04:53 40.59609 123.57672 33042 ft 443 kts 25°
2026-05-04 04:54 40.64993 123.61613 33046 ft 443 kts 25°
2026-05-04 04:54 40.70375 123.65557 33042 ft 443 kts 25°
2026-05-04 04:55 40.75755 123.69510 33035 ft 442 kts 25°
2026-05-04 04:55 40.81133 123.73454 33037 ft 442 kts 25°
2026-05-04 04:56 40.86516 123.77387 33034 ft 441 kts 24°
2026-05-04 04:56 40.91914 123.81234 33031 ft 441 kts 24°
2026-05-04 04:57 40.97311 123.85068 33026 ft 440 kts 24°
2026-05-04 04:57 41.02702 123.88918 33022 ft 440 kts 24°
2026-05-04 04:58 41.08079 123.92774 33029 ft 439 kts 24°
2026-05-04 04:58 41.13442 123.96645 33017 ft 438 kts 24°
2026-05-04 04:59 41.18792 124.00504 33025 ft 437 kts 24°
2026-05-04 04:59 41.24132 124.04346 33018 ft 436 kts 24°
2026-05-04 05:00 41.29456 124.08173 33021 ft 435 kts 24°
2026-05-04 05:01 41.37410 124.13949 33012 ft 434 kts 24°
2026-05-04 05:01 41.42698 124.17811 33015 ft 433 kts 24°
2026-05-04 05:02 41.47947 124.21748 33005 ft 432 kts 25°
2026-05-04 05:02 41.53169 124.25712 33005 ft 431 kts 25°
2026-05-04 05:03 41.58389 124.29666 33005 ft 431 kts 25°
2026-05-04 05:04 41.68798 124.37549 32992 ft 430 kts 25°
2026-05-04 05:04 41.74004 124.41481 32992 ft 429 kts 25°
2026-05-04 05:06 41.94684 124.57242 32984 ft 426 kts 25°
2026-05-04 05:07 41.99835 124.61149 32981 ft 425 kts 23°
2026-05-04 05:07 42.05075 124.64772 32973 ft 423 kts 21°
2026-05-04 05:09 42.28607 124.80803 32960 ft 421 kts 22°
2026-05-04 05:10 42.33813 124.84408 32954 ft 420 kts 22°
2026-05-04 05:10 42.39025 124.88006 32953 ft 420 kts 22°
2026-05-04 05:11 42.44216 124.91606 32953 ft 419 kts 22°
2026-05-04 05:11 42.49407 124.95219 32938 ft 419 kts 22°
2026-05-04 05:12 42.54556 124.98807 32943 ft 419 kts 22°
2026-05-04 05:12 42.59735 125.02416 32935 ft 418 kts 22°
2026-05-04 05:13 42.64908 125.06028 32933 ft 418 kts 22°
2026-05-04 05:13 42.70070 125.09648 32930 ft 417 kts 22°
2026-05-04 05:14 42.75225 125.13270 32924 ft 417 kts 22°
2026-05-04 05:14 42.80375 125.16887 32928 ft 416 kts 21°
2026-05-04 05:15 42.85524 125.20496 32922 ft 416 kts 21°
2026-05-04 05:15 42.90678 125.24066 32918 ft 415 kts 21°
2026-05-04 05:16 42.95831 125.27631 32914 ft 415 kts 21°
2026-05-04 05:16 43.00976 125.31198 32912 ft 414 kts 21°
2026-05-04 05:17 43.06110 125.34778 32906 ft 414 kts 21°
2026-05-04 05:17 43.11237 125.38367 32907 ft 414 kts 21°
2026-05-04 05:18 43.16364 125.41952 32901 ft 414 kts 21°
2026-05-04 05:18 43.21492 125.45539 32902 ft 414 kts 21°
2026-05-04 05:19 43.26610 125.49137 32890 ft 413 kts 21°
2026-05-04 05:19 43.31725 125.52739 32890 ft 413 kts 21°
2026-05-04 05:20 43.36838 125.56353 32879 ft 413 kts 21°
2026-05-04 05:20 43.41944 125.59947 32876 ft 412 kts 20°
2026-05-04 05:21 43.47108 125.63365 32874 ft 411 kts 19°
2026-05-04 05:21 43.52291 125.66669 32872 ft 410 kts 19°
2026-05-04 05:22 43.57467 125.70002 32872 ft 410 kts 19°
2026-05-04 05:22 43.62626 125.73384 32871 ft 410 kts 19°
2026-05-04 05:23 43.66907 125.76198 32869 ft 410 kts 19°
2026-05-04 05:23 43.72067 125.79582 32394 ft 410 kts 19°
2026-05-04 05:24 43.74642 125.81277 31922 ft 410 kts 19°
2026-05-04 05:24 43.77221 125.82975 31450 ft 411 kts 19°
2026-05-04 05:24 43.79804 125.84677 30988 ft 411 kts 19°
2026-05-04 05:24 43.82388 125.86384 30532 ft 412 kts 19°
2026-05-04 05:25 43.84978 125.88095 30083 ft 413 kts 19°
2026-05-04 05:25 43.87569 125.89809 29619 ft 414 kts 19°
2026-05-04 05:25 43.90170 125.91529 29089 ft 415 kts 19°
2026-05-04 05:25 43.92778 125.93253 28586 ft 416 kts 20°
2026-05-04 05:26 43.95395 125.94982 28095 ft 417 kts 20°
2026-05-04 05:26 43.98014 125.96715 27600 ft 418 kts 20°
2026-05-04 05:26 44.00650 125.98464 27106 ft 419 kts 20°
2026-05-04 05:26 44.03290 126.00216 26641 ft 421 kts 20°
2026-05-04 05:27 44.05936 126.01970 26177 ft 422 kts 19°
2026-05-04 05:28 44.25854 126.07279 23053 ft 415 kts
2026-05-04 05:29 44.28696 126.07908 22556 ft 412 kts
2026-05-04 05:29 44.31521 126.08534 22068 ft 410 kts
2026-05-04 05:29 44.34332 126.09155 21589 ft 408 kts
2026-05-04 05:29 44.37128 126.09772 21174 ft 406 kts
2026-05-04 05:31 44.56371 126.14028 18548 ft 395 kts
2026-05-04 05:31 44.59078 126.14636 18196 ft 393 kts
2026-05-04 05:32 44.61778 126.15242 17817 ft 392 kts
2026-05-04 05:32 44.64468 126.15844 17410 ft 391 kts
2026-05-04 05:32 44.67148 126.16445 17004 ft 389 kts
2026-05-04 05:33 44.72483 126.17573 16218 ft 386 kts
2026-05-04 05:33 44.75155 126.17814 15834 ft 384 kts
2026-05-04 05:33 44.77816 126.18049 15453 ft 383 kts
2026-05-04 05:33 44.80473 126.18288 15060 ft 382 kts
2026-05-04 05:34 44.83120 126.18531 14704 ft 381 kts
2026-05-04 05:34 44.85766 126.18774 14332 ft 380 kts
2026-05-04 05:34 44.88402 126.19019 13970 ft 379 kts
2026-05-04 05:34 44.91034 126.19266 13611 ft 379 kts
2026-05-04 05:35 44.93656 126.19512 13213 ft 376 kts
2026-05-04 05:35 44.96227 126.19771 12796 ft 365 kts
2026-05-04 05:35 44.98721 126.19999 12399 ft 354 kts
2026-05-04 05:35 45.01151 126.20212 12001 ft 344 kts
2026-05-04 05:36 45.03512 126.20419 11625 ft 336 kts
2026-05-04 05:36 45.05813 126.20622 11286 ft 326 kts
2026-05-04 05:36 45.08025 126.20824 11158 ft 312 kts
2026-05-04 05:36 45.10146 126.21021 11027 ft 299 kts 360°
2026-05-04 05:37 45.12180 126.21211 10906 ft 288 kts 360°
2026-05-04 05:37 45.14142 126.21393 10770 ft 277 kts 359°
2026-05-04 05:37 45.16050 126.21568 10497 ft 273 kts 359°
2026-05-04 05:38 45.19826 126.21909 9850 ft 270 kts 359°
2026-05-04 05:38 45.21707 126.22081 9815 ft 272 kts 359°
2026-05-04 05:38 45.23601 126.22257 9820 ft 273 kts 359°
2026-05-04 05:38 45.25494 126.22430 9818 ft 273 kts 359°
2026-05-04 05:39 45.27388 126.22600 9798 ft 272 kts 359°
2026-05-04 05:39 45.31146 126.22941 9049 ft 271 kts 359°
2026-05-04 05:39 45.33018 126.23119 8910 ft 270 kts 359°
2026-05-04 05:40 45.36812 126.23478 8913 ft 274 kts 359°
2026-05-04 05:40 45.38714 126.23653 8909 ft 274 kts 359°
2026-05-04 05:40 45.40624 126.23830 8904 ft 275 kts 359°
2026-05-04 05:41 45.42522 126.24006 8644 ft 273 kts 359°
2026-05-04 05:41 45.44415 126.24183 8270 ft 272 kts
2026-05-04 05:41 45.46285 126.24723 7895 ft 278 kts 17°
2026-05-04 05:41 45.47993 126.26051 7552 ft 284 kts 34°
2026-05-04 05:42 45.49501 126.27820 7400 ft 276 kts 36°
2026-05-04 05:42 45.50954 126.29531 7256 ft 267 kts 36°
2026-05-04 05:42 45.52378 126.31203 7007 ft 263 kts 36°
2026-05-04 05:42 45.53789 126.32856 6891 ft 263 kts 36°
2026-05-04 05:43 45.55206 126.34516 6903 ft 264 kts 36°
2026-05-04 05:43 45.56630 126.36182 6829 ft 264 kts 36°
2026-05-04 05:43 45.58046 126.37840 6611 ft 263 kts 36°
2026-05-04 05:45 45.66974 126.48310 4744 ft 214 kts 31°
2026-05-04 05:45 45.68280 126.49076 4468 ft 197 kts
2026-05-04 05:47 45.74438 126.41427 2900 ft 176 kts 267°
2026-05-04 05:47 45.74187 126.39735 2889 ft 167 kts 248°
2026-05-04 05:47 45.73635 126.38424 2937 ft 147 kts 233°
2026-05-04 05:48 45.72917 126.37460 2807 ft 139 kts 222°
2026-05-04 05:48 45.72183 126.36594 2664 ft 135 kts 222°
2026-05-04 05:48 45.71459 126.35742 2505 ft 134 kts 222°
2026-05-04 05:48 45.70741 126.34896 2346 ft 133 kts 222°
2026-05-04 05:49 45.70028 126.34055 2162 ft 133 kts 222°
2026-05-04 05:49 45.69314 126.33215 1989 ft 133 kts 222°
2026-05-04 05:49 45.68606 126.32382 1805 ft 131 kts 222°
2026-05-04 05:49 45.67899 126.31551 1626 ft 131 kts 222°
2026-05-04 05:51 45.62904 126.25676 453 ft 122 kts 220°
2026-05-04 05:51 45.62378 126.25061 453 ft 73 kts 219°
2026-05-04 05:52 45.62176 126.24823 457 ft 25 kts 219°
2026-05-04 05:52 45.62055 126.24657 459 ft 24 kts 231°
2026-05-04 05:52 45.61983 126.24476 459 ft 16 kts 247°
2026-05-04 05:52 45.61938 126.24323 460 ft 17 kts 247°
2026-05-04 05:53 45.61884 126.24172 461 ft 16 kts 230°
2026-05-04 05:54 45.61921 126.23853 462 ft 0 kts 219°